Regional Weather Roundup
Issued by NWS

Home | Current Version | Previous Version | Text Only | Print | Product List | Glossary Off
Versions: 1 2 3 4 5 6 7 8 9 10 11 12 13 14 15 16 17 18 19 20 21 22 23 24 25 26 27 28 29 30 31 32 33 34 35 36 37 38 39 40 41 42 43 44 45 46 47

000
ASUS45 KPSR 240310
RWRAZ

ARIZONA HOURLY REGIONAL WEATHER ROUNDUP
NATIONAL WEATHER SERVICE PHOENIX AZ
800 PM MST FRI JUN 23 2017

NOTE: FAIR INDICATES FEW OR NO CLOUDS BELOW 12,000 FEET WITH NO
SIGNIFICANT WEATHER AND/OR OBSTRUCTIONS TO VISIBILITY.

AZZ001>003-036-240400-
NORTHWEST ARIZONA

CITY           SKY/WX    TMP DP  RH WIND       PRES   REMARKS
BULLHEAD CITY  CLEAR    115  30   5 S13       29.62R HX 106
KINGMAN        CLEAR     97  36  12 W8        29.91R
$$

AZZ004>008-015-016-018-240400-
NORTH CENTRAL ARIZONA

CITY           SKY/WX    TMP DP  RH WIND       PRES   REMARKS
GRAND CANYON   CLEAR     74  27  17 CALM      30.20R
PRESCOTT       CLEAR     89  27  10 SW14      30.06R
FLAGSTAFF      PTCLDY    80  27  14 SW7       30.22R
PAYSON         CLEAR     90  39  17 W6G14     30.10R
PAGE           CLEAR     95  18   6 NW7       29.96R
$$

AZZ009>014-017-240400-
NORTHEAST ARIZONA

CITY           SKY/WX    TMP DP  RH WIND       PRES   REMARKS
WINSLOW        PTCLDY    87  24  10 W6        30.01R
SAINT JOHNS    CLEAR     84  21  10 NW3       30.07R
WINDOW ROCK    CLEAR     81  27  14 N9        30.18R
SHOW LOW       CLEAR     81  36  19 SW8       30.18R
$$

AZZ540-542>544-546-548-240400-
GREATER PHOENIX AREA

CITY           SKY/WX    TMP DP  RH WIND       PRES   REMARKS
PHOENIX        PTCLDY   108  42  10 W10       29.67S HX 102
BUCKEYE        CLEAR    102  45  14 SW14      29.69R
LUKE AFB       CLEAR    105  46  13 SW14      29.67R HX 101
DEER VALLEY    CLEAR    104  44  13 SW10      29.70R
SCOTTSDALE     PTCLDY   106  42  11 W7        29.72S HX 101
MESA-FALCON    PTCLDY   106  48  14 W7        29.72R HX 102
MESA-GATEWAY   PTCLDY   104  45  13 W7        29.73R HX 100
CHANDLER       CLEAR    104  45  13 SW8       29.70R HX 100
$$

AZZ539-553-240400-
SOUTHWEST MARICOPA COUNTY AND PINAL COUNTY

CITY           SKY/WX    TMP DP  RH WIND       PRES   REMARKS
CASA GRANDE    CLEAR    102  46  15 W9        29.74R
GILA BEND      FAIR     106  41  10 SW14      29.68S HX 101
$$

AZZ503-504-507>509-240400-
SOUTHEAST ARIZONA

CITY           SKY/WX    TMP DP  RH WIND       PRES   REMARKS
TUCSON         CLEAR    102  41  12 N13       29.86R
DAVIS-MONTHAN  CLEAR    100  36  11 N10       29.85R
RYAN FIELD     CLEAR    102  43  13 NW9       29.84R
NOGALES        PTCLDY    95  37  13 NW8       29.97R
SIERRA VISTA   CLEAR     89  31  13 W9        30.05R
DOUGLAS        PTCLDY    93  33  12 NW14      29.96R
SAFFORD        CLEAR     98  37  12 W13       29.82R
$$

AZZ532-240400-
SOUTHWEST ARIZONA

CITY           SKY/WX    TMP DP  RH WIND       PRES   REMARKS
YUMA           PTCLDY    98  53  22 SW12      29.68R
$$

CAZ041-043-047-048-061-525>527-560>570-240400-
SOUTHERN CALIFORNIA

CITY           SKY/WX    TMP DP  RH WIND       PRES   REMARKS
DOWNTOWN L.A.  MOCLDY    66  60  81 W3        29.91R
L.A. AIRPORT   CLOUDY    63  61  93 W10       29.91S
SAN DIEGO      CLOUDY    68  61  78 NW7       29.92F
BURBANK        CLEAR     71  59  65 SE10G20   29.90R
ONTARIO        PTCLDY    75  60  59 W12       29.90R
RIVERSIDE      CLEAR     75  61  61 W12       29.89R
PALM SPRINGS   PTCLDY   106  55  18 SE9       29.70R HX 105
EL CENTRO NAS  MOCLDY    98  61  29 SE9       29.65S
IMPERIAL       PTCLDY   101  63  28 SE10      29.63S HX 103
BLYTHE         CLEAR    105  52  17 S10       29.66R HX 103
NEEDLES        MOCLDY   115  28   5 SW14      29.65  HX 106
$$

NVZ020-UTZ003-240400-
SOUTHERN NEVADA-UTAH

CITY           SKY/WX    TMP DP  RH WIND       PRES   REMARKS
LAS VEGAS      PTCLDY   109  20   4 SW6       29.76R HX 100
SALT LAKE CITY CLEAR     77  35  21 W8        30.11R
$$

NMZ009-TXZ055-240400-
NEW MEXICO-WEST TEXAS

CITY           SKY/WX    TMP DP  RH WIND       PRES   REMARKS
ALBUQUERQUE    PTCLDY    81  53  37 E22G31    30.07R
EL PASO        PTCLDY    93  59  31 E22G33    29.89R
$$


........................KEY........................
SKY/WX - SKY CONDITION/WEATHER
TMP    - TEMPERATURE IN FAHRENHEIT
DP     - DEW POINT IN FAHRENHEIT
RH     - RELATIVE HUMIDITY IN PERCENT
WIND   - DIRECTION AND SPEED IN MILES PER HOUR (MPH)
VRB    - VARIABLE WIND DIRECTION
PRES   - MEAN SEA LEVEL PRESSURE IN INCHES OF MERCURY
         F - FALLING PRESSURE   R - RISING PRESSURE
         S - STEADY PRESSURE
VSB    - VISIBILITY IN MILES
HX     - HEAT INDEX IN FAHRENHEIT
WCI    - WIND CHILL INDEX IN FAHRENHEIT
TC     - TEMPERATURE IN CELSIUS WHICH IS ALSO KNOWN AS
         TEMPERATURE IN CENTIGRADE
AFB    - AIR FORCE BASE
         LUKE AFB IS LUKE AIR FORCE BASE
         DAVIS-MONTHAN IS DAVIS-MONTHAN AIR FORCE BASE
NAS    - NAVAL AIR STATION
         EL CENTRO NAS IS EL CENTRO NAVAL AIR STATION
N/A    - NOT AVAILABLE





USA.gov is the U.S. government's official web portal to all federal, state and local government web resources and services.